Weather History for Louisburg, NC

Change the Weather History Date:

Sunday, September 29, 2013

  Actual Average (KRDU) Record (KRDU)
Temperature  
Mean Temperature 65 °F 67 °F  
Max Temperature 77 °F 78 °F 92 °F (1941)
Min Temperature 53 °F 56 °F 39 °F (1970)
Degree Days  
Heating Degree Days 0 2  
Month to date heating degree days 16  
Since 1 July heating degree days 17  
Cooling Degree Days 0 4  
Month to date cooling degree days 222  
Year to date cooling degree days 1663  
Growing Degree Days 15 (Base 50)    
Moisture  
Dew Point 55 °F    
Average Humidity 76    
Maximum Humidity 94    
Minimum Humidity 41    
Precipitation  
Precipitation 0.00 in 0.13 in 2.70 in (1972)
Month to date precipitation 4.23  
Year to date precipitation 33.77  
Sea Level Pressure  
Sea Level Pressure 30.12 in    
Wind  
Wind Speed 2 mph (North)    
Max Wind Speed 9 mph    
Max Gust Speed -    
Visibility 9 miles    
Events Fog    
T = Trace of Precipitation, MM = Missing Value Source: NWS Daily Summary

Daily Weather History Graph

Daily Weather History Graph

Search for Another Location

Airport:

Trip Planner

Search our weather history database for the weather conditions in past years. The results will help you decide how hot, cold, wet, or windy it might be!

Date:

Astronomy

Sep. 29, 2013 Rise Set
Actual Time 7:06 AM EDT 6:59 PM EDT
Civil Twilight 6:41 AM EDT 7:25 PM EDT
Nautical Twilight 6:11 AM EDT 7:54 PM EDT
Astronomical Twilight 5:41 AM EDT 8:24 PM EDT
Moon 1:55 AM EDT (9/29) 3:46 PM EDT (9/29)
Length of Visible Light 12h 43m
Length of Day
11h 52m
Waning Crescent, 27% of the Moon is Illuminated
Sep 29
Waning Crescent
Oct 4
New
Oct 11
First Quarter
Oct 18
Full
Oct 26
Last Quarter

Hourly Weather History & Observations

Time (EDT) Temp. Dew Point Humidity Pressure Visibility Wind Dir Wind Speed Gust Speed Precip Events Conditions
12:15 AM 59.0 °F 55.4 °F 88% 30.19 in 10.0 mi Calm Calm - N/A   Scattered Clouds
12:35 AM 57.2 °F 53.6 °F 88% 30.19 in 10.0 mi Calm Calm - N/A   Scattered Clouds
12:55 AM 57.2 °F 53.6 °F 88% 30.19 in 10.0 mi Calm Calm - N/A   Clear
1:15 AM 57.2 °F 53.6 °F 88% 30.19 in 10.0 mi Calm Calm - N/A   Scattered Clouds
1:35 AM 57.2 °F 53.6 °F 88% 30.18 in 10.0 mi Calm Calm - N/A   Clear
1:55 AM 57.2 °F 53.6 °F 88% 30.18 in 10.0 mi Calm Calm - N/A   Clear
2:15 AM 57.2 °F 55.4 °F 94% 30.18 in 10.0 mi WNW 3.5 mph - N/A   Clear
2:35 AM 57.2 °F 53.6 °F 88% 30.17 in 10.0 mi WNW 3.5 mph - N/A   Clear
2:55 AM 57.2 °F 53.6 °F 88% 30.17 in 10.0 mi Calm Calm - N/A   Clear
3:15 AM 57.2 °F 53.6 °F 88% 30.17 in 10.0 mi Calm Calm - N/A   Clear
3:35 AM 57.2 °F 53.6 °F 88% 30.17 in 10.0 mi Calm Calm - N/A   Clear
3:55 AM 55.4 °F 53.6 °F 94% 30.16 in 10.0 mi Calm Calm - N/A   Clear
4:15 AM 55.4 °F 53.6 °F 94% 30.16 in 10.0 mi Calm Calm - N/A   Clear
4:35 AM 55.4 °F 53.6 °F 94% 30.15 in 10.0 mi Calm Calm - N/A   Clear
4:55 AM 55.4 °F 53.6 °F 94% 30.15 in 10.0 mi Calm Calm - N/A   Clear
5:15 AM 55.4 °F 53.6 °F 94% 30.15 in 10.0 mi Calm Calm - N/A   Clear
5:35 AM 55.4 °F 53.6 °F 94% 30.15 in 7.0 mi NW 3.5 mph - N/A   Clear
5:55 AM 55.4 °F 53.6 °F 94% 30.15 in 10.0 mi WNW 3.5 mph - N/A   Clear
6:15 AM 55.4 °F 53.6 °F 94% 30.16 in 10.0 mi Calm Calm - N/A   Scattered Clouds
6:35 AM 53.6 °F 51.8 °F 94% 30.17 in 7.0 mi Calm Calm - N/A   Clear
6:55 AM 53.6 °F 51.8 °F 94% 30.17 in 7.0 mi Calm Calm - N/A   Clear
7:15 AM 53.6 °F 51.8 °F 94% 30.17 in 7.0 mi Calm Calm - N/A   Clear
7:35 AM 55.4 °F 53.6 °F 94% 30.18 in 2.5 mi Calm Calm - N/A   Scattered Clouds
7:55 AM 55.4 °F 53.6 °F 94% 30.17 in 0.2 mi Calm Calm - N/A Fog Fog
8:15 AM 55.4 °F 53.6 °F 94% 30.17 in 0.2 mi NNW 3.5 mph - N/A Fog Fog
8:35 AM 57.2 °F 55.4 °F 94% 30.17 in 0.2 mi NNW 3.5 mph - N/A Fog Fog
8:55 AM 59.0 °F 55.4 °F 88% 30.17 in 0.2 mi NNW 4.6 mph - N/A Fog Fog
9:15 AM 59.0 °F 57.2 °F 94% 30.17 in 1.0 mi NNW 3.5 mph - N/A   Overcast
9:35 AM 60.8 °F 59.0 °F 94% 30.17 in 5.0 mi NW 3.5 mph - N/A   Overcast
9:55 AM 62.6 °F 59.0 °F 88% 30.16 in 7.0 mi NW 3.5 mph - N/A   Mostly Cloudy
10:15 AM 64.4 °F 59.0 °F 83% 30.16 in 10.0 mi NNW 5.8 mph - N/A   Scattered Clouds
10:35 AM 66.2 °F 57.2 °F 73% 30.16 in 7.0 mi NW 6.9 mph - N/A   Scattered Clouds
10:55 AM 68.0 °F 55.4 °F 64% 30.16 in 10.0 mi Calm Calm - N/A   Scattered Clouds
11:15 AM 69.8 °F 53.6 °F 56% 30.15 in 10.0 mi NNE 8.1 mph - N/A   Clear
11:35 AM 71.6 °F 53.6 °F 53% 30.15 in 10.0 mi North 6.9 mph - N/A   Scattered Clouds
11:55 AM 71.6 °F 51.8 °F 50% 30.15 in 10.0 mi North 4.6 mph - N/A   Clear
12:15 PM 71.6 °F 53.6 °F 53% 30.14 in 10.0 mi North 4.6 mph - N/A   Clear
12:35 PM 71.6 °F 51.8 °F 50% 30.13 in 10.0 mi NNE 6.9 mph - N/A   Scattered Clouds
12:55 PM 73.4 °F 51.8 °F 47% 30.13 in 10.0 mi NNE 8.1 mph - N/A   Scattered Clouds
1:15 PM 73.4 °F 51.8 °F 47% 30.12 in 10.0 mi North 5.8 mph - N/A   Scattered Clouds
1:35 PM 73.4 °F 51.8 °F 47% 30.11 in 10.0 mi NE 9.2 mph - N/A   Scattered Clouds
1:55 PM 73.4 °F 51.8 °F 47% 30.10 in 10.0 mi NNE 5.8 mph - N/A   Scattered Clouds
2:15 PM 73.4 °F 51.8 °F 47% 30.08 in 10.0 mi NNE 4.6 mph - N/A   Scattered Clouds
2:35 PM 77.0 °F 51.8 °F 41% 30.07 in 10.0 mi NNE 5.8 mph - N/A   Scattered Clouds
2:55 PM 75.2 °F 51.8 °F 44% 30.07 in 10.0 mi ENE 4.6 mph - N/A   Scattered Clouds
3:15 PM 77.0 °F 51.8 °F 41% 30.07 in 10.0 mi NNE 9.2 mph - N/A   Scattered Clouds
3:35 PM 77.0 °F 51.8 °F 41% 30.06 in 10.0 mi Calm Calm - N/A   Scattered Clouds
3:55 PM 75.2 °F 51.8 °F 44% 30.06 in 10.0 mi North 3.5 mph - N/A   Scattered Clouds
4:15 PM 75.2 °F 51.8 °F 44% 30.05 in 10.0 mi North 4.6 mph - N/A   Scattered Clouds
4:35 PM 77.0 °F 51.8 °F 41% 30.05 in 10.0 mi Calm Calm - N/A   Clear
4:55 PM 75.2 °F 51.8 °F 44% 30.05 in 10.0 mi NNE 4.6 mph - N/A   Scattered Clouds
5:15 PM 75.2 °F 51.8 °F 44% 30.05 in 10.0 mi ENE 3.5 mph - N/A   Clear
5:35 PM 77.0 °F 53.6 °F 44% 30.05 in 10.0 mi NNE 5.8 mph - N/A   Clear
5:55 PM 73.4 °F 55.4 °F 53% 30.05 in 10.0 mi Calm Calm - N/A   Clear
6:15 PM 69.8 °F 59.0 °F 68% 30.05 in 10.0 mi Calm Calm - N/A   Clear
6:35 PM 68.0 °F 59.0 °F 73% 30.05 in 10.0 mi Calm Calm - N/A   Clear
6:55 PM 64.4 °F 59.0 °F 83% 30.06 in 10.0 mi Calm Calm - N/A   Scattered Clouds
7:15 PM 64.4 °F 59.0 °F 83% 30.06 in 10.0 mi Calm Calm - N/A   Clear
7:35 PM 64.4 °F 59.0 °F 83% 30.07 in 10.0 mi Calm Calm - N/A   Scattered Clouds
7:55 PM 64.4 °F 59.0 °F 83% 30.07 in 10.0 mi Calm Calm - N/A   Scattered Clouds
8:15 PM 62.6 °F 59.0 °F 88% 30.08 in 10.0 mi Calm Calm - N/A   Clear
8:35 PM 68.0 °F 59.0 °F 73% 30.08 in 10.0 mi Calm Calm - N/A   Mostly Cloudy
8:55 PM 64.4 °F 59.0 °F 83% 30.08 in 10.0 mi Calm Calm - N/A   Scattered Clouds
9:15 PM 64.4 °F 59.0 °F 83% 30.08 in 10.0 mi ENE 3.5 mph - N/A   Clear
9:35 PM 64.4 °F 59.0 °F 83% 30.08 in 10.0 mi Calm Calm - N/A   Clear
9:55 PM 62.6 °F 59.0 °F 88% 30.08 in 10.0 mi Calm Calm - N/A   Clear
10:15 PM 60.8 °F 57.2 °F 88% 30.07 in 10.0 mi Calm Calm - N/A   Clear
10:35 PM 60.8 °F 57.2 °F 88% 30.07 in 10.0 mi Calm Calm - N/A   Clear
10:55 PM 60.8 °F 55.4 °F 82% 30.06 in 10.0 mi Calm Calm - N/A   Clear
11:15 PM 59.0 °F 55.4 °F 88% 30.06 in 10.0 mi Calm Calm - N/A   Clear
11:35 PM 59.0 °F 55.4 °F 88% 30.06 in 7.0 mi Calm Calm - N/A   Clear
11:55 PM 59.0 °F 55.4 °F 88% 30.06 in 10.0 mi Calm Calm - N/A   Clear